QIANFAN-50 (62251 NORAD) Tracking and Keplerian Element Data

This shows tracking and keplerian element data for the satellite.

Feedback or suggestion? Click here.




ElementValue
Catalog62251
NameQIANFAN-50
Epoch Orbit2557
Epoch Day34.77306723
Epoch Year2025
RAAN73.185
Inclination88.9894
Eccentricity0.001671
Argument of Perigee29.4787
Mean Anonmoly330.7342
Mean Motion14.203701
Decay Rate4.56E-06
L11 62251U 24232Q 25034.77306723 .00000456 00000+0 20614-3 0 9998
L22 62251 88.9894 73.1850 0016710 29.4787 330.7342 14.20370100 25579



Live tracking and technical data element details for QIANFAN-50 (NORAD 62251). QIANFAN-50 can be tracked NOW for your location showing map with azimuth and elevation plus other details from your city location.







IsCatalogInMostPopularTable: catalog: 62251, numindb: 15
Update: records affected: 1



GetName: 62251 QIANFAN-50

Hit Count: updated at: Mon, 19 May 2025 02:31:22 GMT